COSMOS 2533

Last updated on Sat Jul 05 2025 00:02:47 GMT+0000 (Coordinated Universal Time)

1 43867U 18107A 25185.43308803 -.00000025 00000+0 00000+0 0 9991 2 43867 0.0404 108.9974 0000450 11.3770 28.2205 1.00271599 23956
UTC large
Height (km)
Speed (km/s)
/
Latitude / Longitude
Inclination (degrees)
Orbital Period (minutes)
Azimuth
Elevation
Range (km)
Doppler Factor

Next 0 passes for location: London (51.5072 / 0.1276)

Sorry there are no passes over London.